Location: Pitton
(51.0667°N, 1.7000°W)
Time: 17:03:20
(UTC+00:00)

NOAA 11 - Pass Details

Date: 17 September 2019
Orbit: 832 x 850 km, 98.4° (Epoch: 15 October)

Event Time Altitude Azimuth Distance (km) Brightness Sun altitude
Rises 18:57:58 0° 166° (SSE) 3,404 7.1 -7.2°
Reaches altitude 10° 19:00:20 10° 167° (SSE) 2,472 6.4 -7.5°
Maximum altitude 19:05:50 83° 255° (WSW) 863 4.4 -8.4°
Drops below altitude 10° 19:11:22 10° 344° (NNW) 2,481 7.1 -9.2°
Sets 19:13:45 0° 345° (NNW) 3,419 7.8 -9.6°
